TIMESTAMP,CO2_1_1_1,H2O_1_1_1,TAU_1_1_1,TAU_SSITC_TEST_1_1_1,H_1_1_1,H_SSITC_TEST_1_1_1,LE_1_1_1,LE_SSITC_TEST_1_1_1,FC_1_1_1,FC_SSITC_TEST_1_1_1,WD_0_0_1,WS_0_0_1,WS_MAX_0_0_1,U_SIGMA_0_0_1,V_SIGMA_0_0_1,W_SIGMA_0_0_1,USTAR_0_0_1,MO_LENGTH_0_0_1,ZL_0_0_1,FETCH_MAX_0_0_1,FETCH_70_0_0_1,FETCH_80_0_0_1,FETCH_90_0_0_1,PA_0_0_1,RH_0_0_1,TA_0_0_1,VPD_0_0_1,T_SONIC_0_0_1,T_SONIC_SIGMA_0_0_1
[yyyymmddHHMMSS],[mmolCO2 mol-1],[mmolH2O mol-1],[kg m-1 s-2],[#],[W m-2],[#],[W m-2],[#],[umolCO2 m-2 s-1],[#],[Decimal degrees],[m s-1],[m s-1],[m s-1],[m s-1],[m s-1],[m s-1],[m],[#],[m],[m],[m],[m],[kPa],[%],[deg C],[hPa],[deg C],[deg C]
20240518003000,421.17452415573160,11.818330497127675,0.42403881720563208,0,-28.662554097351883,0,43.898123294694642,0,2.5410145680311507,0,165.75604128216989,3.1217992380767416,8.6181418126200597,1.3188526662721329,1.1308865868015754,0.82737090794563062,0.62062530980597763,693.62219692456540,2.7392433639297643E-002,99.485156850523907,181.89059588615450,217.67658776932777,272.50525744362591,93.483244212673611,43.596666666666664,21.359666666666669,14.297426457943891,21.850389427185121,0.19845689624308405
20240518010000,422.25392829783152,11.920689518665355,0.20492989442354509,0,-47.484908987497739,0,31.921144923936904,0,2.0018927832886457,0,156.23309286999088,2.3788148119867185,6.2402615914996797,0.82076309459765262,0.72193815571065934,0.55058015452536646,0.43080853873785024,140.04552318983019,0.13567017043626384,102.90249364102847,188.13857744286528,225.15382593595481,281.86587234688437,93.490551761284721,46.371000000000002,20.497666666666646,12.892549754999564,21.106916384379019,0.37920163521512706
20240518013000,423.51201725962386,11.942693574447080,0.15850487045647249,0,-45.076043658372086,0,18.656702633198211,0,2.3103984474782990,0,142.71242427878394,2.5855654943539501,5.5965459252338201,0.77867809348720018,0.60262078385198337,0.46310025272114436,0.37831151594958534,99.903449450088473,0.19018362333417080,106.51101778491930,194.73611045764511,233.04938792120242,291.75017903094562,93.494499214756502,49.035666666666664,19.625333333333344,11.608045233123388,20.338843327562586,0.29952649395113079
20240518020000,425.14211050702772,11.931986968562358,0.14817112631223192,0,-51.482967785097209,0,13.375393817681232,0,3.0653207195650367,0,139.53737829202046,2.6127542311785210,5.2059802831059301,0.73438239073089107,0.63099671312691041,0.46516430282691634,0.36526218475575345,78.735925277425238,0.24131297032521928,103.19379079983659,188.67116155363030,225.79119309266068,282.66378039434193,93.510565068142355,51.387000000000000,18.861666666666679,10.558180686117636,19.597945383707724,0.32104203899799749
20240518023000,426.45371903797241,11.757416462823956,0.24690458470049445,0,-70.685303808558558,0,24.002082380303086,0,3.7513633981754251,0,143.53662309678967,2.5700474743022070,5.8766155596324747,0.86440939876615075,0.69096397289471845,0.51914770431763668,0.47093760555510777,122.93479223261259,0.15455348038534863,115.82247645808819,211.76042664962458,253.42314633197628,317.25570692311186,93.543731228732639,52.530666666666669,18.280333333333317,9.9413025203109235,19.013690846761165,0.33672379676544301
20240518030000,427.77950834744735,11.802663679538700,0.44918393676771406,0,-91.592217351749881,0,29.192097575181119,1,7.2363131916725481,0,145.29991289096321,3.1827461939976729,8.7922430646213279,1.2638703603981396,0.98761883189501098,0.74265433746532761,0.63446809209428279,232.03980918111642,8.1882501399446223E-002,110.39600337333660,201.83910316587466,241.54985606330234,302.39175644261007,93.567999240885413,54.779666666666664,17.678999999999974,9.1188112929291059,18.460761179606152,0.30720663299934881
20240518033000,427.31888976329066,12.362038358783872,0.60591699311724612,0,-100.40442925447094,0,19.615735159004466,0,8.9114719985127344,0,144.15778255730658,3.1940006193660593,9.4884305825176689,1.3466524604183008,1.1275767907572092,0.87154204599802632,0.73683810545235962,331.63710663212959,5.7291538311109023E-002,109.47674759217658,200.15841041631995,239.53849609700313,299.87377244145972,93.588337530815977,57.539333333333332,17.637333333333345,8.5398507718805714,18.435613678826314,0.28160044604466050
20240518040000,428.61686611928650,12.563948316589235,0.69686774678506780,0,-75.740502447333654,0,11.507905381974281,0,6.0208256445072479,0,139.23473284590159,3.1502314657403288,8.1855541168048358,1.4583306129129507,1.1108123463981312,0.87519496798253915,0.78932420678805892,540.49191667823447,3.5153162172656648E-002,115.28568587936157,210.77900227113804,252.24863201021168,315.78535436520218,93.601145092447922,60.869999999999997,17.005666666666684,7.5618895280267111,17.846227512783571,0.25201537899578869
20240518043000,429.82670955360521,12.775764520812439,0.52446764051764505,0,-75.186099814598478,0,17.502890698972323,0,6.9144040001887772,0,140.10323227610135,3.2420701944856236,7.9159631281057203,1.3558379366711342,1.0706666430134917,0.79563952502722546,0.68423857732330295,354.71032905679294,5.3564834298800178E-002,110.98080357429539,202.90830444568525,242.82941691741840,303.99361479374880,93.608999746093744,63.664333333333332,16.563333333333333,6.8274404279197531,17.435929419623562,0.24470489519110306
20240518050000,430.78602045356860,12.915405923682043,0.48315706977135980,0,-79.836666310747773,0,17.004961483774682,0,7.6600527058294752,0,141.98102580688379,2.9972965913355560,8.2033697100422280,1.2976827019127952,1.0721939100859179,0.77650094131807290,0.65625974544832844,294.75870574342662,6.4459504095321252E-002,109.44651143579942,200.10312907913502,239.47233845544332,299.79095092477814,93.622954572916669,66.007000000000005,16.168999999999983,6.2288286194072020,17.063695472717313,0.23802276313409160
20240518053000,431.67816054679867,12.997889155016040,0.45074907304350204,0,-60.694861699568172,0,12.132893420143004,0,6.2079569520753708,0,141.61370302130166,2.8707681824085096,7.3890622498767575,1.1875054286379041,1.0194943665313607,0.73654359892116505,0.63353618446376458,348.84873367907022,5.4464867335535169E-002,110.99751908067091,202.93886572247703,242.86599096027916,304.03940115537665,93.631853156684031,67.653666666666666,15.884333333333359,5.8203170914857605,16.789434427897163,0.19269615982614238
20240518060000,432.95278353934401,13.028732795312308,0.53183411492687849,0,-49.534918297153304,0,15.635061260233444,0,6.3909235143700442,0,144.37573215790005,2.9266441360491400,7.9399504581256490,1.3168538102088347,1.0605439018016298,0.82468763437488324,0.68797440551975186,547.39485123145607,3.4709862464464780E-002,108.31313819329421,198.03096132097957,236.99248288796130,296.68646602465736,93.637739048611110,68.448999999999998,15.739666666666665,5.6249102363324504,16.629764882405652,0.16051579155032844
20240518063000,434.10719737687441,13.226779808166539,0.59283326121221191,0,-78.957115086042151,0,48.146680403232082,1,8.7766844886064774,0,160.22083925789667,3.8354615959982596,10.516165305750935,1.5758248059170172,1.4000801661270244,1.0088956498866717,0.72630176344224484,404.06499929091126,4.7022137609896597E-002,96.265701322435731,176.00440438813257,210.63231990048089,263.68666997506375,93.632268701375381,69.855666666666664,15.656666666666638,5.3456459481764345,16.578668848002280,0.25573388609732695
20240518070000,434.43868951515202,14.036950338817062,0.29201097938569914,0,-84.090878961095981,0,9.4393623156106887,1,6.7283244302316509,0,154.73033868432179,2.8571579454514104,8.2142697445438042,1.1112771988810677,0.91432745487110745,0.66075968070639246,0.50893671206186941,130.56556545648783,0.14552075758697589,101.61342637712764,185.78175135753733,222.33330705359856,278.33491740112055,93.645091871439988,78.870000000000005,14.695666666666682,3.5225885489940105,15.763807531104078,0.36624034907413666
20240518073000,434.83627872149168,13.836101606868761,0.24700299714261115,0,-65.510303604391495,0,17.386768519312753,0,6.0347798434877893,0,149.58701761758005,3.0492395311821983,7.0092483808534842,0.97345812765034023,0.88625144003848066,0.64509154617464470,0.46817353657902733,130.45621055228082,0.14564274034608476,96.890971094791126,177.14759695156394,212.00042942345351,265.39938075204361,93.639547686631943,77.105999999999995,14.822000000000003,3.8478934140723302,15.827613199022153,0.27755613585810696
20240518080000,436.44009484788990,13.673608186657239,0.22473737226051022,0,-45.649976348732793,0,9.2614240496194853,1,4.3529026211568862,0,141.28167729934728,2.6710695415021730,6.4379989351416596,0.88525371685996201,0.82058540006964698,0.56183392895178186,0.44646226360393682,162.35733389236790,0.11702581918840657,104.18287435661014,190.47952174743332,227.95533838300489,285.37303349103053,93.644838298177092,76.747333333333330,14.711999999999989,3.8805468050658147,15.737756018744619,0.21561371742672644
20240518083000,437.11400245852735,13.496362465288241,0.20425172714313961,0,-37.919628947072070,0,9.4214602536599017,0,3.3786797505051216,0,142.01543471523922,2.8347866010995038,6.7121275258709128,0.95204759474296230,0.81776262223090179,0.55916046056873059,0.42552701923687081,169.21847712880117,0.11228088281126707,100.63926345302774,184.00067083895345,220.20180856716541,275.66653422891790,93.640794332203214,76.384333333333331,14.582666666666682,3.9083569352884595,15.556421128269221,0.23063047583326074
20240518090000,436.74557101695655,13.452578180934660,0.45431040440909398,0,-58.003657245268407,0,13.477521471882923,0,6.3866123983535674,0,143.21156768285624,2.9353151831453363,7.5481938951688559,1.1828995772720159,0.86847635972212811,0.70425110608269592,0.63476505189398658,367.18826953185192,5.1744572407566622E-002,115.22939347454971,210.67608180160028,252.12546249442971,315.63116074726958,93.633883775824657,75.611666666666665,14.688666666666677,4.0639499680374636,15.676546779208763,0.18611917711542003
20240518093000,438.65651577023141,13.455464633971447,0.28473717987304248,0,-45.088737125046585,0,6.3514153207510278,0,5.0616576628103989,0,147.23015083593654,2.8815562530385939,8.0729525395198181,1.0443962132763553,0.95157287025895365,0.69911243483277974,0.50233890373764867,234.10145038054839,8.1161393785105396E-002,96.120214023344118,175.73840720459893,210.31398920841977,263.28815772309730,93.627339675328514,76.779333333333341,14.453666666666663,3.8110812627778454,15.443108686609776,0.18825555735514488
20240518100000,440.16088522367295,13.377682042980462,0.38686031641114416,0,-87.333107130033312,0,10.798291166355853,0,8.2204587434526335,0,151.96008383528573,3.1897112044799187,7.7201483452809683,1.1613735380737247,1.0255419405532764,0.75487588953082241,0.58535609060377902,191.22514936298066,9.9359315776684221E-002,102.16227831230056,186.78522774238002,223.53421199481045,279.83830788295342,93.624032539713554,77.207000000000008,14.277666666666676,3.6985330568943757,15.260122376336028,0.28308340956294725
20240518103000,440.96349292210675,13.269117309425535,0.49589169409077616,0,-85.408111865277988,0,13.154917780613294,0,7.5135768268742016,0,151.06113066576015,3.2761407119662058,8.3534009039085895,1.3020451545538323,0.97431169387544647,0.77093665045676052,0.66262626738545027,283.63960520424257,6.6986413925934365E-002,110.93149452240567,202.81815177251534,242.72152719294803,303.85854966137236,93.625628949218751,76.944666666666663,14.204666666666697,3.7234552965105401,15.187794634501188,0.24654532927858322
20240518110000,441.46795965931960,13.221741946942693,0.45002461178583758,0,-79.408025474370007,0,11.292021297623691,0,6.0370972833544867,0,155.53321102557643,3.2820064711364720,7.7419961635769337,1.2638546553833616,1.0364643856571072,0.77181191332161680,0.63110958823197427,263.62599131315540,7.2071801059366433E-002,106.59320980786234,194.88638368938621,233.22922659927761,291.97531571546187,93.650411037326379,76.869333333333330,14.168666666666695,3.7269183588976196,15.151101283603282,0.22681460563722794
20240518113000,441.55842732438390,13.254374557306773,0.47712159590888026,0,-52.799330453946340,0,13.844164534801994,0,4.1479231148534250,0,150.63569292423375,3.3081272476330104,8.3408068502406891,1.2573717035794012,1.0659149623649613,0.81182347297902546,0.64995735796563070,433.09067633391169,4.3870720470904463E-002,104.80777663424486,191.62204241330889,229.32264381620820,287.08473764303596,93.653718961177972,76.478333333333339,14.286000000000001,3.8188308513977471,15.263849000732648,0.17720982940760707
20240518120000,439.92977098706803,13.234141859720054,0.70407448676350803,0,-2.0615366857544482,2,33.325668507953068,0,1.0798235701930625,2,149.96650849936577,3.5366053697276536,9.0014402880060942,1.5634158814060506,1.2037257083701478,0.92982305441702029,0.79071667688746539,19969.760512870147,9.5143855069042250E-004,109.98953616400205,201.09595147114368,240.66049328830059,301.27837978393399,93.636616618923611,72.507333333333335,15.085666666666668,4.6999464675926657,16.017375794304712,0.32870536072264595
20240518123000,437.69534029944191,13.123301527686484,0.45375005769792609,0,-17.313404934940440,2,42.249426118736629,0,0.94502003210872032,2,156.71213240275216,3.2192486669421814,7.8465074721863353,1.3562546070398060,1.1192126694171063,0.85892201201261120,0.63560837088560729,1235.0797667578961,1.5383621780053364E-002,98.410989858966545,179.92667603759693,215.32627730273256,269.56294763743455,93.639318714409725,68.403666666666666,15.863333333333344,5.6777352398054974,16.768967930263898,0.46666120753175383
20240518130000,433.66349804577351,13.051709186281796,0.55656578855711747,0,-3.2298775749171762,2,79.441617644685067,0,3.2931629100728479,1,168.72402096097144,3.1392818824239241,8.6590898676534618,1.4007330838422234,1.2102167888233577,0.90451021330490600,0.70603950188642250,9075.6374278971907,2.0935168632449730E-003,102.70399085122287,187.77565103388298,224.71949571710121,281.32214245237833,93.656411193793403,60.761666666666663,17.645666666666671,7.8959111762958996,18.513941039191423,0.45080732799017642
20240518133000,430.19813319016782,13.104254733678896,0.61753021580809531,0,41.260908412907177,0,96.943210429434231,0,2.4955745776294944,0,164.83031883097649,3.2370253536575793,10.842524155500147,1.5077387027156242,1.4233587593454098,0.98254583161280784,0.74560682019225177,-836.70193815602477,-2.2708206033170388E-002,100.41082684327188,183.58301586019985,219.70198222816731,275.04081096404332,93.652095872395833,55.628666666666668,19.116666666666674,9.7915204566878291,19.916457027011461,0.37186249138856453
20240518140000,427.88983051078969,13.278130333524995,1.0213439659459806,0,127.99638470911331,1,142.35019023845157,1,-4.7030702904729953,2,170.56165708135745,3.7284440496218778,13.334112130629206,2.1717737542544842,1.6265461115121282,1.1134474838430006,0.96052158636619467,-576.69287284084976,-3.2946479651125217E-002,111.25635126406790,203.41209350401763,243.43232375072139,304.74838260551672,93.657592681423608,52.988999999999997,20.112666666666655,11.035961151401043,20.882858691745355,0.44521362023559091
20240518143000,425.47181564129522,13.547090495921372,1.1545090442752173,0,181.24267953462638,0,152.16348727936972,0,-3.3786634332964769,2,173.90162650933070,4.0421683288102761,12.751975039618033,2.1210131539711825,1.7035164605998807,1.2857362165089128,1.0233516432229322,-492.59587022707177,-3.8571171924851044E-002,104.31657295338118,190.72396542331120,228.24787503124472,285.73925466096529,93.664648219618059,50.163000000000004,21.329666666666640,12.609753808291032,22.058661345587950,0.42883570025872658
20240518150000,423.38827119463480,13.839615401464139,1.6660553630562993,0,193.00730155981242,0,144.46752829882408,0,-1.6864336593915314,0,179.77531236864988,4.8934753384794591,14.078788152483828,2.4593846612109997,2.0451841161702662,1.4595967908481009,1.2313308344360840,-805.64283534827769,-2.3583651670887558E-002,109.28696967778657,199.81143586225363,239.12325617432339,299.35394133242642,93.630032968315973,48.741999999999997,22.143666666666661,13.630569087377328,22.822846018473342,0.34399163307765929
20240518153000,422.35092460836836,13.997864819198723,1.4599526181949105,0,172.97106781945220,0,138.50075870922541,0,-3.1382856392081302,0,178.85180620964152,4.7688361029753166,14.580354580435083,2.4788043210131732,2.0196621647786159,1.4190046446556834,1.1529718035736651,-738.02074579021053,-2.5744533752444045E-002,106.05296025404066,193.89863520124237,232.04714393345338,290.49548848888190,93.624288871093739,48.918666666666667,22.269999999999982,13.688454597615213,22.991489395141684,0.44871567181037730
20240518160000,421.62774051516385,13.952714270917021,1.2015671928368103,0,75.182104032681622,0,126.63354374058032,0,-1.6204294595189508,0,163.35798446409785,4.4469442359891964,13.035266594029970,2.2348641989309268,1.7892286839136389,1.2548591856640590,1.0462264346429395,-1268.1380160150259,-1.4982596342080540E-002,108.26285002721927,197.93901851480661,236.88245083149263,296.54871894683743,93.570433148871530,48.808999999999997,22.244333333333316,13.696434450437231,22.962429431491444,0.21425873368962481
20240518163000,420.28874128089217,13.656791968152067,0.92307382331159460,0,137.71980047716457,0,117.36889474787523,0,-2.6646236929643736,0,163.11854034099869,4.0110579316981800,11.454579412023888,1.8446971398083354,1.6297628094491736,1.2413064647851140,0.91839116332357840,-468.33507678301783,-4.0569243991952372E-002,98.395184203736207,179.89777825888069,215.29169404220488,269.51965349905288,93.593627399739574,44.966666666666669,23.247333333333358,15.647558226725268,23.950538330078189,0.54801147280409901
20240518170000,420.14592127463663,13.335878305869258,1.8816845950344376,0,307.47722472488715,0,203.85822972958937,0,-4.2886317179812039,1,159.03796069887068,4.2191851486616452,12.957073287750339,2.4571238580324022,1.9459621009160402,1.4400006372922149,1.3143141193375425,-614.60019084502562,-3.0914406280734365E-002,116.39225734967003,212.80216784173106,254.66984447451480,318.81642505898674,93.547508086371522,40.639000000000003,24.527333333333331,18.227559393808455,25.073738074408652,0.56269213413687136
20240518173000,419.63310611968728,12.495122251877762,1.3646964418275569,0,209.82378058180782,0,149.23813790413212,0,-8.8523810654084108E-003,2,161.09111093486331,5.1307529490448465,13.935138306411888,2.3419409776298314,2.1521457011737875,1.4901063712005627,1.1199626986941789,-557.04900895043841,-3.4108309492909376E-002,99.642342582284869,182.17798153563143,218.02051499243260,272.93581351506424,93.513237978298605,37.292666666666669,24.869666666666660,19.652824556956134,25.314987589518296,0.42682876861716723
20240518180000,419.31737035498838,13.070126893772445,1.3642987009728289,0,202.52979288589887,0,163.36178223840781,0,-0.62713310090578711,0,152.66151606199259,4.6152422215468434,15.074627844291049,2.4209971819379543,2.0934530728580447,1.3171806500199212,1.1205469883475385,-577.95042185177704,-3.2874792164911334E-002,110.02279773328863,201.15676422803298,240.73327062650228,301.36948837528934,93.485294605902780,38.435000000000002,25.113333333333344,19.577019918806709,25.623324156019407,0.54064314318133577
20240518183000,419.18314149414022,13.507254929238632,1.4478805929333078,0,276.54652436792884,0,164.95589841823494,0,0.95906843205118453,1,158.64481923564114,5.0556690867239302,14.585457177864544,2.4020995335490256,2.2869640486684664,1.4484342815895708,1.1551553413860105,-463.68459776339802,-4.0976129230186405E-002,104.48361161747660,191.02936537552711,228.61336077381100,286.19679944054229,93.468728424045139,38.992666666666665,25.421333333333337,19.758274526582095,25.864563550313335,0.52097361690164967
20240518190000,419.07285818355871,12.943415008406163,2.0197749787957240,0,384.54277358023506,0,153.66801278403477,1,1.5789419395750488,0,162.09620428769287,4.7592949488534373,16.187433300781006,2.7061979943892251,2.3223448885980629,1.5688572892023347,1.3665748071705168,-551.88637454822572,-3.4427376496753342E-002,112.12304304523322,204.99668249715407,245.32867206582981,307.12238566715519,93.424910859809032,35.412666666666667,26.319999999999993,22.060572060163441,26.776446063571484,0.53767537733633508
20240518193000,419.58840193695772,12.026322416636534,1.9667891104950443,0,293.25594138363221,0,127.43750383802717,0,0.84057384157523563,1,163.79218884143063,5.4455835503137218,17.560498208894035,2.9084619417995716,2.5761738002035459,1.6437431231113426,1.3489286233601590,-695.95235539884197,-2.7300719442369482E-002,106.90029824426935,195.44783929197166,233.90114555781062,292.81647851874101,93.433258623833140,32.314666666666668,26.627999999999986,23.542127608675056,26.914160539818113,0.50596664126198010
20240518200000,420.19225172316669,12.780859034295784,1.8291761230442765,0,181.31307827490213,0,192.95489338390499,1,4.4330754354978978,1,168.10379297959895,5.0251978803489354,14.399852902721577,2.5993586625672229,2.1732496639944370,1.5573752404774028,1.3005124729109119,-1008.7793750235653,-1.8834643600396921E-002,108.40065452959939,198.19096909564931,237.18397132768510,296.92618682834672,93.424647238281253,34.917666666666669,26.344333333333338,22.261575185307493,26.778346150716175,0.40194929700539916
20240518203000,420.12396791703719,12.983762278580009,2.1995267819035025,0,291.26647342855023,0,171.87739732443100,0,1.0094072310286091,1,168.30947895014774,5.3974999608970551,16.137253336947300,2.9937571976525894,2.5755069410808766,1.6733840294297331,1.4271656257101799,-829.80414524201558,-2.2896969253459895E-002,110.24474707920486,201.56255841948106,241.21890263238299,301.97744201946182,93.407198401041654,34.707666666666668,26.711000000000013,22.820972741672751,27.037338784111853,0.43688200891025036
20240518210000,420.24993068017909,13.495295465941348,1.6810105898653125,0,238.76499523978154,0,150.63312227557105,0,1.3392390962508134,0,167.65293395298551,4.3580158626534065,14.113418737155019,2.4561172216806595,2.0911518662162321,1.4849134513508460,1.2477595440345324,-676.43531464844295,-2.8088421152101858E-002,108.94284362703122,199.18226368809817,238.37029777467478,298.41132676536046,93.384670520399325,36.238666666666667,26.629999999999995,22.179903253041079,27.117254816691116,0.45218533453486498
20240518213000,420.44438903086302,14.164353138472917,2.1899043309360282,0,269.20295757240677,0,147.62123864495021,0,1.9505859539214878,0,163.97050109272661,5.1901588495945905,15.218880308215237,2.7279880900883944,2.3489960413925859,1.6540359153778856,1.4251008263420615,-893.49188177518340,-2.1264882633573495E-002,111.14640623146194,203.21107891924427,243.19176063258899,304.44722612787302,93.318299905381949,37.768999999999998,26.737333333333311,21.784687617602945,27.171188400693325,0.37079646503209707
20240518220000,421.31041041438107,14.450443191445563,1.3645289935929183,0,-36.574389573878200,2,93.264907368872727,0,7.2289165977053491,0,162.56529662167921,4.4451230672242357,14.517351662070473,2.3139381854080705,1.8489798027857525,1.3256973120212423,1.1229071236243142,3217.1673973140655,5.9058164072726326E-003,109.64137385844124,200.45939973590640,239.89870343880327,300.32470928963534,93.311705473958341,41.187333333333335,25.607666666666660,19.259320941602788,26.311585625966586,0.32066880475803133
20240518223000,422.99060496660411,14.646073615326276,0.82226921126912789,0,-73.638045771900238,0,66.527843601170645,0,10.120190577555570,0,166.03944443178875,3.7943972236963628,11.249617947380429,1.8220263428189616,1.5192709272568137,1.0661146155724324,0.87038179336123878,744.26099816101498,2.5528678846462274E-002,106.45832293503278,194.63976746589216,232.93408996641759,291.60583967330803,93.334049730711257,43.903666666666666,24.764333333333354,17.470747409968308,25.592515807352356,0.25593421037520536
20240518230000,423.31142712044368,15.533974582897603,1.0642318807129916,0,-185.94831905288240,0,140.23401878266873,0,10.722711345936499,0,168.63297083219388,4.2553884159843625,13.162409844091588,2.0019628769522528,1.6571874968473062,1.2680660224324274,0.98751045987349573,430.63248107045843,4.4121149321505300E-002,102.51201511056269,187.42465815243401,224.29944688283956,280.79629115669070,93.372533650173608,51.256333333333330,23.173000000000002,13.797133701535433,24.162438413831978,0.40893978730115393